Location: Atherton
(17.2661°S, 145.4859°E)
Time: 00:34:45
(UTC+10:00)

Vanguard 1 - Pass Details

Date: 25 June 2025
Orbit: 649 x 3822 km, 34.2° (Epoch: 17 July)

Event Time Altitude Azimuth Distance (km) Brightness Sun altitude
Rises 16:03:10 0° 321° (NW) 7,874 16.0 22.2°
Reaches altitude 10° 16:08:50 10° 325° (NW) 6,912 15.9 21.1°
Maximum altitude 16:30:53 53° 36° (NE) 3,770 13.2 16.7°
Drops below altitude 10° 16:45:46 10° 107° (ESE) 4,916 13.1 13.6°
Sets 16:48:57 0° 112° (ESE) 5,570 13.3 13.0°
